Weather History for KCVG - November, 2013

Change the Weather History Date:

Monday, November 18, 2013

  Actual Average Record
Temperature  
Mean Temperature 45 °F 44 °F  
Max Temperature 53 °F 53 °F 76 °F (1930)
Min Temperature 37 °F 36 °F 12 °F (1880)
Degree Days  
Heating Degree Days 20 21  
Month to date heating degree days 334 314  
Since 1 July heating degree days 667 676  
Cooling Degree Days 0 0  
Month to date cooling degree days 0 0  
Year to date cooling degree days 1150 1121  
Moisture  
Dew Point 33 °F    
Average Humidity 62    
Maximum Humidity 82    
Minimum Humidity 41    
Precipitation  
Precipitation 0.00 in 0.13 in 2.12 in (1957)
Month to date precipitation 1.88 1.98  
Year to date precipitation 44.26 37.70  
Snow  
Snow 0.00 in 0.10 in 2.00 in (1955)
Month to date snowfall 0.7 0.2  
Since 1 July snowfall 0.7 0.6  
Since 1 September snowfall 0.7 0.6  
Snow Depth 0.00 in    
Sea Level Pressure  
Sea Level Pressure 30.03 in    
Wind  
Wind Speed 14 mph (West)    
Max Wind Speed 28 mph    
Max Gust Speed 35 mph    
Visibility 10 miles    
Events      
T = Trace of Precipitation, MM = Missing Value Source: NWS Daily Summary

Daily Weather History Graph

Daily Weather History Graph

Search for Another Location

Airport or City:

Trip Planner

Search our weather history database for the weather conditions in past years. The results will help you decide how hot, cold, wet, or windy it might be!

Date:

Astronomy

Nov. 18, 2013 Rise Set
Actual Time 7:25 AM EST 5:22 PM EST
Civil Twilight 6:56 AM EST 5:51 PM EST
Nautical Twilight 6:24 AM EST 6:23 PM EST
Astronomical Twilight 5:52 AM EST 6:55 PM EST
Moon 6:24 PM EST (11/18) 8:13 AM EST (11/18)
Length of Visible Light 10h 54m
Length of Day
9h 56m
Full, 99% of the Moon is Illuminated
Nov 18
Full
Nov 25
Last Quarter
Dec 2
New
Dec 9
First Quarter
Dec 17
Full

Hourly Weather History & Observations

Time (EST) Temp. Windchill Dew Point Humidity Pressure Visibility Wind Dir Wind Speed Gust Speed Precip Events Conditions
1:52 AM 48.9 °F - 39.0 °F 69% 29.85 in 10.0 mi West 13.8 mph - N/A   Clear
2:52 AM 48.0 °F - 39.0 °F 71% 29.87 in 10.0 mi West 11.5 mph - N/A   Clear
3:52 AM 46.9 °F - 39.0 °F 74% 29.90 in 10.0 mi WNW 13.8 mph - N/A   Clear
4:52 AM 45.0 °F 41.2 °F 37.9 °F 76% 29.93 in 10.0 mi WSW 6.9 mph 17.3 mph N/A   Clear
5:52 AM 44.1 °F 40.1 °F 37.0 °F 76% 29.94 in 10.0 mi SW 6.9 mph - N/A   Clear
6:52 AM 42.1 °F 36.6 °F 36.0 °F 79% 29.95 in 10.0 mi SSW 9.2 mph - N/A   Clear
7:52 AM 43.0 °F 37.7 °F 37.0 °F 80% 29.95 in 10.0 mi WSW 9.2 mph - N/A   Clear
8:52 AM 46.0 °F 41.0 °F 37.9 °F 73% 29.97 in 10.0 mi WSW 10.4 mph - N/A   Clear
9:52 AM 46.9 °F - 37.0 °F 68% 29.98 in 10.0 mi West 21.9 mph - N/A   Clear
10:52 AM 50.0 °F - 36.0 °F 59% 30.00 in 10.0 mi West 18.4 mph 21.9 mph N/A   Partly Cloudy
11:52 AM 51.1 °F - 35.1 °F 54% 30.01 in 10.0 mi West 20.7 mph 29.9 mph N/A   Partly Cloudy
12:52 PM 52.0 °F - 34.0 °F 50% 30.00 in 10.0 mi West 19.6 mph 27.6 mph N/A   Partly Cloudy
1:52 PM 53.1 °F - 33.1 °F 47% 30.01 in 10.0 mi West 19.6 mph 28.8 mph N/A   Partly Cloudy
2:52 PM 52.0 °F - 30.0 °F 43% 30.02 in 10.0 mi West 24.2 mph 32.2 mph N/A   Partly Cloudy
3:52 PM 52.0 °F - 28.0 °F 40% 30.04 in 10.0 mi West 21.9 mph - N/A   Partly Cloudy
4:52 PM 50.0 °F - 28.9 °F 44% 30.07 in 10.0 mi WNW 19.6 mph 28.8 mph N/A   Partly Cloudy
5:52 PM 46.9 °F - 28.0 °F 48% 30.10 in 10.0 mi WNW 16.1 mph - N/A   Clear
6:52 PM 45.0 °F 39.3 °F 28.0 °F 52% 30.13 in 10.0 mi West 11.5 mph - N/A   Clear
7:52 PM 44.1 °F 37.4 °F 27.0 °F 51% 30.14 in 10.0 mi WNW 13.8 mph - N/A   Partly Cloudy
8:52 PM 43.0 °F 35.7 °F 27.0 °F 53% 30.16 in 10.0 mi NW 15.0 mph 21.9 mph N/A   Clear
9:52 PM 39.0 °F 33.4 °F 27.0 °F 62% 30.18 in 10.0 mi WNW 8.1 mph - N/A   Clear
10:52 PM 39.0 °F 32.8 °F 27.0 °F 62% 30.19 in 10.0 mi WNW 9.2 mph - N/A   Clear
11:52 PM 37.9 °F 31.5 °F 27.0 °F 65% 30.20 in 10.0 mi NW 9.2 mph - N/A   Clear